Location: Dambec
(49.6948°N, 1.4694°E)
Time: 10:11:05
(UTC+00:00)

Daily predictions for brighter satellites

Satellite Brightness Start Highest point End
(mag) Time Altitude Azimuth Time Altitude Azimuth Time Altitude Azimuth
SPOT 3 Rocket 4.0 20:35:01 10° SE 20:39:57 50° ENE 20:44:55 10° N
SL-12 R/B (Aux Motor) 4.5 20:38:13 10° WSW 20:40:20 39° SSE 20:43:58 10° E
Aureole 2 3.9 20:38:02 10° SSW 20:40:57 88° WNW 20:43:45 10° NNE
NOSS 2-2 (D) 3.6 20:39:11 10° SW 20:42:27 55° NW 20:45:25 10° NE
YAOGAN 11 4.3 20:38:30 10° NNE 20:42:53 52° E 20:47:11 10° S
Cosmos 2082 3.9 20:38:24 10° SSW 20:44:02 78° WNW 20:49:41 10° NNE
Cosmos 2227 4.4 20:39:37 10° S 20:45:12 55° ESE 20:50:49 10° NE
Okean 3 Rocket 4.2 20:42:11 10° N 20:46:28 44° ENE 20:50:41 10° SSE
Meteor 2-20 Rocket 4.4 20:42:04 10° S 20:47:50 72° E 20:53:50 10° NNE
Cosmos 2266 Rocket 4.4 20:41:48 10° NNW 20:47:57 68° W 20:54:12 10° S
CZ-4 R/B 3.7 20:45:15 10° SW 20:48:05 20° W 20:50:57 10° NW
Cosmos 2263 Rocket 3.8 20:43:03 10° WSW 20:48:15 39° NW 20:53:28 10° NNE
Helios 1A Rocket 2.8 20:45:53 10° N 20:48:58 60° WNW 20:52:03 10° SSW
Ariane Rocket 3.5 20:44:45 10° SE 20:49:35 47° ENE 20:54:27 10° N
Okean-O 2.8 20:46:16 10° S 20:50:37 76° WSW 20:55:01 10° NNW
Spot 2 Rocket 3.8 20:47:28 10° S 20:52:30 68° WSW 20:57:35 10° NNW
NOSS 3-2 (A) 3.3 20:51:01 10° SSW 20:55:48 50° ESE 21:01:30 10° NE
CZ-4B R/B 4.2 20:50:40 10° S 20:55:50 43° W 21:00:57 10° NNW
Cosmos 1340 Rocket 3.1 20:52:29 10° N 20:56:09 46° ENE 20:59:45 10° SSE
Cosmos 1408 Rocket 4.4 20:52:48 10° N 20:56:54 36° ENE 21:00:58 10° SE
Cosmos 1603 3.8 20:52:08 10° NNW 20:57:55 80° ENE 21:03:37 10° SSE
Cosmos 1842 Rocket 3.6 20:53:36 10° S 20:58:01 71° E 21:02:27 10° NNE
USA 215 3.6 20:52:17 10° ESE 20:58:45 67° NNE 21:05:14 10° WNW
Cosmos 773 Rocket 4.0 20:55:11 10° SSW 21:00:19 89° ESE 21:05:32 10° NNE
BREEZE-M DEB (TANK) 2.9 20:59:16 10° W 21:00:51 17° SSW 21:02:13 10° SSE
Cosmos 1570 Rocket 4.3 21:00:12 10° SSW 21:05:31 76° WNW 21:10:54 10° NNE
EXPRESS MD2 4.5 21:02:01 10° W 21:05:47 26° SW 21:08:14 11° SSE
USA 245 2.9 21:03:22 10° SSE 21:07:09 78° ENE 21:10:15 10° N
Cosmos 1844 Rocket 2.6 21:02:01 10° SSW 21:07:34 78° ESE 21:13:10 10° NNE
Meteor 2-10 Rocket 4.0 21:02:14 10° NNW 21:08:03 72° W 21:13:44 10° S
SL-14 R/B 3.1 21:07:09 10° S 21:10:50 69° E 21:14:33 10° NNE
Cosmos 1238 Rocket 4.1 21:07:36 10° SSW 21:12:21 52° WNW 21:17:00 10° N
Cosmos 1553 Rocket 4.4 21:07:50 10° SSE 21:13:53 47° E 21:19:54 10° NNE
CZ-4C R/B 3.6 21:07:23 10° NW 21:14:09 51° WSW 21:22:27 10° SSE
Cosmos 1833 Rocket 3.8 21:12:16 10° NNW 21:17:28 36° NE 21:22:38 10° ESE
Cosmos 1151 Rocket 3.4 21:14:28 10° SSE 21:18:36 46° E 21:22:45 10° NNE
CZ-2C R/B 2.6 21:23:48 16° SE 21:25:38 39° ENE 21:28:15 10° N
Cosmos 1953 3.6 21:24:17 10° NNE 21:27:13 23° ENE 21:29:35 13° ESE
SL-24 R/B - RUBIN 2 3.6 21:23:34 10° SW 21:28:06 85° NW 21:32:29 10° NE
Cosmos 1844 3.9 21:22:56 10° SSW 21:28:44 84° WNW 21:34:35 10° NNE
CZ-4B R/B 3.5 21:24:45 12° SSE 21:29:32 88° WSW 21:34:46 10° NNW
Okean O Rocket 3.1 21:26:18 10° SSW 21:30:09 31° W 21:34:05 10° NNW
In-Cosmos 22 4.3 21:29:51 10° SSW 21:35:37 86° WNW 21:41:25 10° NNE
NOSS 3-2 (C) 3.6 21:32:39 10° S 21:37:16 39° ESE 21:42:41 10° NE
Cosmos 1461 3.1 21:39:31 10° NW 21:42:51 42° WSW 21:45:06 18° S
NOSS 2-3 (C) 4.4 21:42:37 18° SE 21:43:16 19° ESE 21:45:49 10° ENE
USA 186 3.9 21:42:32 10° WSW 21:43:34 12° W 21:44:36 10° WNW
CZ-4B R/B 3.6 21:42:34 11° S 21:46:03 45° W 21:49:53 10° NNW
Cosmos 1745 Rocket 4.4 21:40:00 10° N 21:46:08 54° ENE 21:51:04 16° SSE
Sich 1 4.3 21:49:24 10° NNW 21:53:19 36° W 21:57:13 10° SSW
Cosmos 1500 Rocket 3.7 21:49:04 10° NNW 21:53:24 70° W 21:56:48 16° S
Helios 1A 3.9 21:52:12 10° NE 21:55:38 28° E 21:57:27 20° SE
Cosmos 2344 4.1 21:48:48 10° S 21:55:40 34° ESE 22:01:59 10° NE
GP-B 3.0 21:53:32 10° N 21:57:57 89° WSW 22:01:23 16° S
Iridium 4 Rocket 3.6 21:55:05 15° S 21:59:34 74° E 22:04:36 10° N
Helios 1B rocket 3.7 21:57:42 14° ESE 21:59:45 22° ENE 22:02:29 10° NNE
Cosmos 1607 4.2 21:54:21 10° NW 22:00:42 66° WSW 22:05:32 18° SSE
ARIANE 5 R/B 4.3 21:59:12 11° ESE 22:02:25 23° ENE 22:05:55 10° N
SWARM C 4.5 22:00:47 10° N 22:04:01 67° E 22:05:40 26° SSE
SWARM A 4.4 22:00:58 10° N 22:04:10 56° E 22:05:43 26° SSE
Cosmos 2285 Rocket 4.4 22:01:49 10° NNW 22:08:04 60° WSW 22:13:01 17° S
NOSS 2-3 (D) 3.2 22:07:03 12° SSW 22:10:21 54° SE 22:14:05 10° NE
ALOS 2 4.2 22:11:55 13° ESE 22:14:53 25° ENE 22:18:30 10° N
Cosmos 1538 Rocket 4.0 22:11:36 16° S 22:15:45 65° ESE 22:20:57 10° NNE
Cosmos 2315 Rocket 4.3 22:13:38 19° SSE 22:17:56 52° E 22:23:57 10° NNE
Cosmos 1943 Rocket 3.4 22:16:33 19° SE 22:18:58 25° ESE 22:23:30 10° NE
CENTAUR R/B 4.3 22:13:43 10° W 22:19:24 37° NNW 22:26:28 10° NE
Iridium 45 4.0 22:18:35 28° S 22:20:01 86° W 22:23:06 10° N
Cosmos 1328 Rocket 3.6 22:24:39 24° S 22:27:09 64° E 22:31:28 10° NNE
Lacrosse 5 rocket 1.8 22:30:44 29° SE 22:30:46 29° SE 22:33:51 10° ENE
Cosmos 1666 Rocket 3.5 22:30:45 10° NNW 22:35:07 82° W 22:37:29 26° S
CZ-2C R/B 4.4 22:32:09 10° ESE 22:36:01 22° ENE 22:39:56 10° N
NOSS 2-3 (E) 3.1 22:34:16 10° SW 22:37:55 82° NW 22:41:47 10° NE
Cosmos 1703 4.2 22:37:14 14° SW 22:39:29 33° WNW 22:42:24 10° N
USA 215 3.4 22:37:29 21° SSE 22:41:54 56° SW 22:48:19 10° WNW
GEOS 3 Rocket 3.7 22:45:16 21° SE 22:48:59 89° SW 22:54:24 10° NW
Timation 1 Rocket 4.3 22:45:04 10° NNW 22:51:04 81° WSW 22:54:45 25° SSE
S3M 4.1 22:48:42 18° SSW 22:53:25 74° W 22:59:35 10° N
Cosmos 1515 Rocket 3.8 22:55:38 30° SSE 22:57:31 54° E 23:01:46 10° NNE
CSL-04 DEB 4.1 22:57:32 35° SSE 22:59:00 76° ENE 23:02:41 10° NNW
ARGOS Delta rocket 4.1 22:53:46 10° NNE 22:59:11 80° ESE 23:02:18 25° S
USA 59 Rocket 0.8 23:01:29 23° ESE 23:01:29 23° ESE 23:03:38 10° ENE
Cosmos 1833 Rocket 3.2 22:56:08 10° NW 23:01:33 48° WSW 23:04:36 24° S
Spot 4 3.9 22:59:30 28° SSE 23:02:06 80° ENE 23:06:57 10° NNW
Cosmos 1953 3.6 22:59:02 10° NNW 23:02:07 27° W 23:03:47 19° SW
Cosmos 1709 Rocket 4.4 22:59:01 10° NNW 23:05:13 58° W 23:09:28 21° SSW
Meteor 1-16 Rocket 4.3 22:59:56 10° NNW 23:05:26 73° W 23:08:42 26° S
Cosmos 2082 Rocket 2.9 23:01:57 10° NNW 23:07:27 49° NE 23:11:51 15° SE
Okean 3 3.8 23:09:18 32° SE 23:10:39 45° E 23:14:30 10° NNE
Meteor 1-23 Rocket 4.3 23:07:55 22° SSW 23:11:40 76° WNW 23:17:15 10° N
Cosmos 2278 Rocket 2.6 23:09:54 27° S 23:12:41 49° ESE 23:18:07 10° NE
Cosmos 1633 Rocket 3.9 23:08:44 10° NNW 23:12:52 41° W 23:15:02 24° SSW
Cosmos 1400 Rocket 2.5 23:20:36 10° NNW 23:24:19 86° ENE 23:25:30 41° SSE
Cosmos 1624 Rocket 4.0 23:19:10 10° NNW 23:24:28 79° WSW 23:27:15 29° SSE
Cosmos 1680 Rocket 3.4 23:22:43 26° SSW 23:25:39 82° ESE 23:30:53 10° NNE
CZ-2C R/B 3.6 23:21:36 10° NNE 23:27:02 50° E 23:29:38 28° SSE
Cosmos 494 Rocket 4.0 23:24:38 28° S 23:27:24 73° ESE 23:32:39 10° NNE
NOSS 3-2 (C) 4.2 23:22:50 10° WSW 23:27:54 49° NW 23:34:06 10° NE
Helios 1A 4.4 23:26:49 10° N 23:30:16 30° WNW 23:33:09 13° WSW
Meteor 1-12 Rocket 4.4 23:24:57 10° NNW 23:30:35 65° W 23:33:43 27° S
Cosmos 2056 Rocket 3.5 23:26:08 10° NNW 23:31:13 67° WSW 23:33:38 31° S
Helios 1B rocket 3.3 23:31:35 25° SW 23:32:32 29° W 23:35:38 10° NW
NOSS 2-3 (C) 4.3 23:29:49 10° WSW 23:33:04 41° NW 23:36:39 10° NNE
Cosmos 1812 3.6 23:34:49 10° N 23:35:32 21° N 23:35:32 21° N
ARIANE 5 R/B 3.2 23:36:34 29° SSW 23:38:27 48° W 23:42:45 10° NNW
ACS3 Solar Sail 2.6 23:34:58 10° NNE 23:40:08 34° E 23:43:12 21° SE
USA 238 DEB 3.5 23:36:16 21° SSW 23:40:31 74° SE 23:47:17 10° NE
USA 238 3.5 23:36:31 21° SSW 23:40:45 73° SE 23:47:30 10° NE
Okean 2 4.2 23:42:04 23° SW 23:43:56 38° WNW 23:47:34 10° N
Cosmos 546 4.4 23:46:11 20° WSW 23:48:43 69° SSE 23:52:30 10° ENE
BREEZE-M DEB (TANK) 3.5 23:35:08 10° W 23:49:08 90° S 23:53:16 10° E
ALOS 2 3.3 23:49:18 28° SSW 23:51:02 42° W 23:55:13 10° NNW
Cosmos 1933 Rocket 3.9 23:47:59 10° NNW 23:52:12 54° W 23:53:53 32° SSW
Cosmos 1441 Rocket 2.7 23:54:17 50° SSW 23:55:01 76° WNW 23:58:16 10° N
